Location: Unspecified
(50.5113°N, 0.0000°E)
Time: 00:23:44
(UTC+00:00)

MAROC-TUBSAT - Visible Passes

Search period start: 04 April 2026 00:00
Search period end: 14 April 2026 00:00
Orbit: 984 x 1013 km, 99.8° (Epoch: 29 March)

Date Brightness Start Highest point End Pass type
(mag) Time Alt. Az. Time Alt. Az. Time Alt. Az.
4 Apr 10.9 02:32:00 10° E 02:36:33 22° NE 02:41:08 10° N visible
4 Apr 8.6 04:13:13 10° SSE 04:19:24 89° ENE 04:25:42 10° NNW visible
4 Apr 11.6 20:21:57 10° NNW 20:24:31 13° NW 20:27:05 10° WNW visible
5 Apr 10.3 03:02:19 10° ESE 03:07:43 33° ENE 03:13:10 10° N visible
5 Apr 8.6 04:44:57 10° S 04:51:03 58° WSW 04:57:13 10° NNW visible
5 Apr 10.7 19:08:10 10° N 19:13:36 31° WNW 19:19:00 10° WSW visible
6 Apr 11.5 01:54:03 10° ENE 01:56:46 13° NE 01:59:29 10° NNE visible
6 Apr 9.5 03:33:05 10° SE 03:39:01 50° ENE 03:45:02 10° N visible
6 Apr 11.3 19:40:13 10° N 19:44:44 21° NW 19:49:15 10° W visible
7 Apr 11.1 02:23:30 10° E 02:27:45 20° NE 02:32:01 10° N visible
7 Apr 8.7 04:04:16 10° SSE 04:10:28 79° ENE 04:16:44 10° NNW visible
7 Apr 11.5 20:12:36 10° NNW 20:15:45 14° NW 20:18:54 10° WNW visible
8 Apr 10.5 02:53:40 10° ESE 02:58:52 29° NE 03:04:06 10° N visible
8 Apr 8.6 04:35:54 10° S 04:42:03 67° WSW 04:48:18 10° NNW visible
9 Apr 11.6 01:45:58 10° ENE 01:48:00 12° NE 01:50:03 10° NNE visible
9 Apr 9.8 03:24:18 10° SE 03:30:07 44° ENE 03:36:00 10° N visible
9 Apr 11.2 19:31:06 10° N 19:35:56 24° NW 19:40:46 10° WSW visible
10 Apr 11.3 02:15:04 10° E 02:18:57 17° NE 02:22:50 10° N visible
10 Apr 9.0 03:55:23 10° SSE 04:01:32 69° ENE 04:07:46 10° NNW visible
10 Apr 11.5 20:03:21 10° N 20:06:59 16° NW 20:10:37 10° W visible
11 Apr 10.8 02:45:04 10° ESE 02:50:02 26° NE 02:55:01 10° N visible
11 Apr 8.5 04:26:52 10° SSE 04:33:04 77° WSW 04:39:23 10° NNW visible
11 Apr 11.9 20:36:27 10° NNW 20:37:54 11° NW 20:39:21 10° NW visible
12 Apr 11.8 01:38:17 10° NE 01:39:16 10° NE 01:40:14 10° NNE visible
12 Apr 10.1 03:15:35 10° SE 03:21:14 39° ENE 03:26:58 10° N visible
12 Apr 11.0 19:22:00 10° N 19:27:06 27° NW 19:32:12 10° WSW visible
13 Apr 11.4 02:06:42 10° E 02:10:10 16° NE 02:13:38 10° N visible
13 Apr 9.2 03:46:31 10° SE 03:52:36 60° ENE 03:58:46 10° NNW visible
13 Apr 11.4 19:54:09 10° N 19:58:12 18° NW 20:02:15 10° W visible
